Location: Springfield
(37.2150°N, 93.2980°W)
Time: 04:47:18
(UTC-05:00)

Daily predictions for brighter satellites

Satellite Brightness Start Highest point End
(mag) Time Altitude Azimuth Time Altitude Azimuth Time Altitude Azimuth
SL-16 R/B 4.0 00:46:54 26° N 00:46:54 26° N 00:49:24 10° NNE
CZ-4C R/B 3.8 00:45:16 10° NW 00:49:47 39° WNW 00:49:47 39° WNW
Cosmos 2237 Rocket 4.4 01:08:11 18° NW 01:08:11 18° NW 01:11:25 10° NNW
ATLAS 2AS CENTAUR R/B 3.4 01:20:12 58° N 01:20:12 58° N 01:26:43 10° NNE
ATLAS 3B R/B 3.8 01:49:38 10° NNW 01:53:17 35° NNW 01:53:17 35° NNW
Cosmos 2369 Rocket 4.0 02:05:42 10° NNW 02:08:01 26° NNW 02:08:01 26° NNW
USA 238 4.5 02:06:39 10° NNW 02:11:23 46° NNW 02:11:23 46° NNW
USA 215 3.7 02:21:22 10° NE 02:26:58 55° NNW 02:26:58 55° NNW
Cosmos 1943 Rocket 3.6 02:24:35 10° NNW 02:27:54 34° N 02:27:54 34° N
NOSS 3-2 (C) 4.4 02:37:47 10° NNW 02:45:15 58° NE 02:50:12 25° ESE
ARIANE 5 R/B 4.3 02:46:08 10° NE 02:49:48 24° E 02:49:48 24° E
SL-16 R/B 3.8 02:51:39 29° ESE 02:53:37 36° ENE 02:59:10 10° N
USA 267 4.1 02:52:14 10° ESE 02:58:23 46° NE 03:04:34 10° NW
ADEOS Rocket 4.1 02:53:40 10° NNE 02:59:19 37° E 03:00:02 36° ESE
GEOS 3 Rocket 4.5 03:01:56 10° NE 03:05:55 45° ENE 03:05:55 45° ENE
NOSS 3-4 (A) 3.8 03:09:46 60° NNW 03:09:46 60° NNW 03:15:32 10° NNE
NOSS 3-4 (C) 3.8 03:09:52 61° NNW 03:09:52 61° NNW 03:15:39 10° NNE
Cosmos 1656 Rocket 4.2 03:07:08 10° NNW 03:11:51 53° NE 03:11:51 53° NE
NOSS 3-2 (A) 3.9 03:18:37 10° NW 03:26:14 69° WSW 03:26:14 69° WSW
Meteor 1-21 4.3 03:27:47 73° NNE 03:27:47 73° NNE 03:32:49 10° N
Aureole 1 Rocket 4.5 03:34:07 36° NNW 03:34:07 36° NNW 03:37:04 10° N
Lacrosse 5 rocket 2.3 03:41:41 51° ENE 03:41:41 51° ENE 03:45:21 10° NE
Nadezhda 3 Rocket 4.1 03:46:00 56° WNW 03:46:00 56° WNW 03:52:04 10° N
Cosmos 1624 Rocket 4.4 03:42:28 10° N 03:47:38 60° ENE 03:49:36 36° SE
Resurs 1-4 Rocket 1.9 03:44:22 10° NNE 03:49:36 83° WNW 03:49:36 83° WNW
Cosmos 1758 Rocket 4.0 03:51:05 60° ENE 03:51:05 60° ENE 03:54:56 10° NNE
Cosmos 1271 Rocket 4.2 03:47:03 10° N 03:49:21 34° NNE 03:49:21 34° NNE
Spot 4 Rocket 4.1 03:49:06 10° N 03:53:54 62° NW 03:53:54 62° NW
USA 32 3.9 03:54:34 76° SSE 03:54:59 84° E 04:00:15 10° N
CZ-2D R/B 2.0 03:54:51 10° N 04:00:07 68° WNW 04:00:15 68° W
RESURS DK-1 4.0 04:01:38 25° NNW 04:01:38 25° NNW 04:04:07 10° N
Cosmos 921 Rocket 3.6 03:56:31 10° N 04:00:58 59° ENE 04:02:20 40° SE
Cosmos 2056 Rocket 3.6 03:55:44 10° NNW 04:01:04 75° ENE 04:03:28 33° SSE
ADEOS 3.7 04:06:40 10° N 04:11:43 52° WNW 04:11:59 51° W
Cosmos 1953 Rocket 3.6 04:12:22 65° NW 04:12:22 65° NW 04:16:31 10° N
Cosmos 2082 Rocket 3.8 04:08:27 15° SSE 04:12:14 30° ESE 04:17:07 10° NE
COSMOS 2455 3.0 04:06:42 10° NW 04:12:09 49° W 04:12:09 49° W
Cosmos 1833 Rocket 4.4 04:09:32 13° SSE 04:13:30 27° ESE 04:18:10 10° NE
Cosmos 1727 Rocket 4.2 04:10:06 27° SSE 04:13:36 67° E 04:19:43 10° NNE
SL-27 R/B 4.3 04:17:17 22° NNW 04:17:17 22° NNW 04:19:06 10° N
COSMOS 2406 4.0 04:17:44 33° WNW 04:18:27 34° WNW 04:23:39 10° N
IRS-1D 4.0 04:13:37 10° N 04:18:31 43° WNW 04:18:54 42° W
MOZ.5/SAFIR/RUBIN 5/SL-8 3.7 04:19:03 33° SSE 04:21:08 83° E 04:25:50 10° N
NOSS 2-2 (E) 4.0 04:24:14 43° WNW 04:24:25 44° NW 04:28:50 10° NNE
CZ-2D R/B 3.2 04:22:44 10° N 04:26:48 75° WNW 04:27:05 70° WSW
Cosmos 1707 2.8 04:27:49 55° SSE 04:28:34 75° E 04:32:26 10° N
ARIANE 5 R/B 3.2 04:24:47 10° N 04:29:31 36° WNW 04:30:09 35° W
COBE Rocket 4.4 04:27:13 10° N 04:31:55 41° WNW 04:32:34 39° W
Cosmos 1821 Rocket 4.5 04:29:22 10° NNW 04:34:52 37° W 04:35:56 34° WSW
Cosmos 1452 Rocket 4.0 04:30:53 10° N 04:36:06 62° ENE 04:41:17 10° SSE
SL-16 R/B 3.1 04:36:45 32° WSW 04:37:11 32° W 04:42:40 10° NW
Cosmos 1470 2.6 04:34:15 10° N 04:38:08 73° W 04:39:05 48° SSW
Cosmos 1953 3.4 04:36:03 10° NNW 04:38:39 28° WNW 04:38:39 28° WNW
USA 267 3.4 04:35:02 10° SSE 04:41:18 49° SW 04:47:37 10° NW
COSMOS 2487 2.3 04:43:51 56° SSW 04:44:32 82° WNW 04:48:07 10° NNE
ADEOS Rocket 3.9 04:39:22 10° N 04:44:42 33° WNW 04:46:59 26° WSW
CENTAUR R/B 3.1 04:39:02 10° NW 04:47:03 74° WSW 04:55:27 10° SSE
Intercosmos 25 4.2 04:39:56 10° N 04:47:06 87° E 04:51:26 10° S
GPS 2-05 Rocket1 3.9 04:47:25 29° S 04:47:41 30° SSE 04:50:46 10° E
Cosmos 1378 3.1 04:46:11 33° S 04:47:46 86° E 04:51:31 10° N
SOZ 4.4 04:48:43 64° SE 04:48:43 64° SE 04:50:47 10° NE
Cosmos 1818 4.1 04:47:39 30° WSW 04:49:45 43° NW 04:54:56 10° NNE
UNKNOWN OBJECT B 3.8 04:47:41 10° N 04:51:11 30° WNW 04:51:34 29° W
Okean O Rocket 2.2 04:47:04 10° NNE 04:51:27 56° E 04:55:38 11° S
Cosmos 1605 Rocket 4.2 04:49:40 10° NNW 04:55:35 48° W 05:00:20 16° SSW
ADEOS II 2.5 04:50:28 10° NNE 04:55:41 62° E 05:00:52 10° S
Cosmos 1048 Rocket 4.3 04:52:01 14° S 04:56:22 65° ESE 05:01:27 10° NNE
Meteor 1-24 Rocket 3.9 04:54:22 10° S 04:59:45 69° E 05:05:20 10° NNE
Tiangong 1 1.6 05:04:20 18° NW 05:06:10 49° NNE 05:08:55 10° E
Cosmos 1269 Rocket 4.0 05:04:31 13° SSW 05:09:16 86° ESE 05:14:34 10° NNE
PSLV R/B 4.0 05:08:06 10° N 05:12:09 62° WNW 05:15:23 16° SSW
Cosmos 839 Rocket 4.3 05:07:48 10° NW 05:14:09 57° WSW 05:21:46 10° S
Cosmos 1733 4.4 05:12:41 10° NW 05:15:42 23° W 05:16:22 22° WSW
USA 161 3.8 05:18:52 13° WNW 05:18:52 13° WNW 05:19:29 10° NW
Lacrosse 5 rocket 3.4 05:17:23 12° W 05:20:23 21° NW 05:23:57 10° NNE
Cosmos 389 Rocket 3.9 05:19:29 10° NW 05:22:14 21° W 05:23:00 19° WSW
CZ-4B DEB 4.2 05:16:53 10° NNE 05:22:24 87° WNW 05:27:51 10° SSW
Meteor 2-17 Rocket 4.5 05:16:31 10° N 05:22:36 86° E 05:28:39 10° S
Cosmos 2098 Rocket 4.1 05:21:32 10° NW 05:22:26 13° WNW 05:22:26 13° WNW
Cosmos 1000 Rocket 4.4 05:17:14 10° SSW 05:23:22 74° W 05:29:35 10° N
Delta 2 Rocket 2.8 05:22:47 19° W 05:24:59 58° S 05:28:18 10° ESE
Cosmos 1697 Rocket 3.1 05:20:46 10° NNW 05:26:22 67° ENE 05:31:55 10° SSE
MOS 1 Rocket 4.4 05:22:55 10° NNW 05:26:24 24° WNW 05:28:54 15° WSW
Cosmos 2100 Rocket 3.9 05:20:43 10° NNW 05:26:51 67° W 05:32:55 10° S
Cosmos 1842 Rocket 3.8 05:24:34 10° NNW 05:28:50 50° W 05:33:06 10° SSW
Cosmos-2242 4.4 05:26:36 10° NW 05:29:49 20° W 05:32:08 14° SW
CZ-4B R/B 3.4 05:25:52 10° N 05:30:03 50° WNW 05:34:22 10° SSW
Cosmos 2278 3.8 05:25:12 10° NNW 05:30:44 52° WSW 05:36:14 10° S
EO 1 Del DPAF 3.2 05:29:39 10° SSE 05:33:30 84° WSW 05:37:23 10° NNW
MTI 3.7 05:30:42 10° SSE 05:33:56 85° WSW 05:37:11 10° NNW
Cosmos 2173 Rocket 4.0 05:27:51 10° NNW 05:34:02 64° W 05:40:08 10° S
IRAS Rocket 4.4 05:29:30 10° NNE 05:35:10 82° ESE 05:40:48 10° SSW
PSLV R/B 3.7 05:32:04 10° N 05:36:21 57° WNW 05:40:35 10° SSW
Cosmos 2369 4.0 05:32:47 10° NW 05:38:15 46° WSW 05:43:39 10° S
DELTA 2 R/B(2) 3.8 05:37:17 17° SW 05:38:16 35° SSE 05:40:05 10° E
Cosmos 1340 Rocket 4.4 05:34:58 10° SSE 05:38:40 37° E 05:42:22 10° NNE
CZ-4B R/B 4.1 05:45:22 10° NNE 05:49:22 72° ESE 05:53:08 10° S
Cosmos 2221 2.4 05:45:17 10° N 05:49:34 78° W 05:53:48 10° S
Cosmos 1674 3.1 05:46:41 10° S 05:50:25 67° E 05:54:12 10° NNE
Cosmos 2061 Rocket 4.2 05:45:41 10° NNW 05:51:37 49° W 05:57:31 10° SSW
Cosmos 2082 Rocket 3.0 05:51:00 10° SW 05:56:10 35° WNW 06:01:21 10° N
Cosmos 1833 Rocket 3.4 05:52:04 10° SW 05:57:13 36° WNW 06:02:23 10° N
Cosmos 1980 Rocket 2.5 05:54:23 10° NNW 06:00:06 75° ENE 06:05:44 10° SSE
